Regional Weather Roundup
Issued by NWS Cleveland, OH

Home | Current Version | Previous Version | Graphics & Text | Print | Product List | Glossary On
Versions: 1 2 3 4 5 6 7 8 9 10 11 12 13 14 15 16 17 18 19 20 21 22 23 24 25 26 27 28 29 30 31 32 33 34 35 36 37 38 39 40 41 42 43 44 45 46 47 48 49 50
000
ASUS41 KCLE 200900
RWRCLE
OHIO REGIONAL WEATHER ROUNDUP
NATIONAL WEATHER SERVICE WILMINGTON, OH
500 AM EDT SUN APR 20 2014

NOTE: "FAIR" INDICATES FEW OR NO CLOUDS BELOW 12,000 FEET WITH NO
SIGNIFICANT WEATHER AND/OR OBSTRUCTIONS TO VISIBILITY.

OHZ001>008-015>018-024>027-034-035-043-044-201000-
   NORTHWEST OHIO

CITY           SKY/WX    TMP DP  RH WIND       PRES   REMARKS
DEFIANCE       PTCLDY    36  29  75 CALM      30.32R
FINDLAY        PTCLDY    37  30  75 E6        30.29F
TOLEDO EXPRESS PTCLDY    36  31  82 CALM      30.31R
TOLEDO METCALF PTCLDY    39  32  76 CALM      30.32S
LIMA           CLEAR     36  30  79 E5        30.28F
$$

OHZ009>014-019>023-028>033-038-089-201000-
   NORTHEAST OHIO

CITY           SKY/WX    TMP DP  RH WIND       PRES   REMARKS
CLE-HOPKINS    CLEAR     38  31  76 CALM      30.34R
CLE-LAKEFRONT  CLEAR     42  31  64 CALM      30.30S
CUY CO. ARPT   NOT AVBL
LORAIN-ELYRIA  CLEAR     36  31  82 CALM      30.31S
ASHTABULA      CLEAR     41  26  55 SE6       30.32S
AKRON-CANTON   PTCLDY    40  30  67 NE6       30.31R
WOOSTER        NOT AVBL
MANSFIELD      CLEAR     41  27  57 CALM      30.30R
YOUNGSTOWN     PTCLDY    42  27  55 E9        30.30R
$$

OHZ042-051>053-060>062-070>072-077>081-201000-
  SOUTHWEST OHIO

CITY           SKY/WX    TMP DP  RH WIND       PRES   REMARKS
CINC-COVINGTON PTCLDY    46  34  62 N7        30.24R
CINC-LUNKEN    CLEAR     39  37  92 CALM      30.26R
HAMILTON       CLEAR     41  36  82 NW3       30.27R
DAYTON         NOT AVBL
WRIGHT-PAT AFB CLEAR     40  33  76 CALM      30.27S
DAYTON GENERAL CLEAR     41  34  76 NE9       30.25R
WILMINGTON     CLEAR     42  32  67 NE9       30.25R
$$

OHZ036-037-039>041-045>050-054>059-063>069-073>076-082>088-201000-
  CENTRAL AND SOUTHEAST OHIO

CITY           SKY/WX    TMP DP  RH WIND       PRES   REMARKS
COLUMBUS       PTCLDY    47  29  49 NE3       30.27R
OSU AIRPORT    CLEAR     42  30  62 N5        30.28R
BOLTON FIELD   NOT AVBL
RICKENBACK AFB NOT AVBL
NEWARK         CLEAR     42  30  62 N6        30.27S
MARION         CLEAR     36  30  79 N5        30.29S
LANCASTER      CLEAR     41  33  73 NW5       30.27R
ZANESVILLE     CLEAR     42  29  59 N5        30.27R
NEW PHILLY     CLEAR     38  30  73 CALM      30.31R
$$



USA.gov is the U.S. government's official web portal to all federal, state and local government web resources and services.